Abakan, Russia

5:42 AM +07 on November 12, 2019 (GMT +0700)
Abakan

Weather History for UNAA - September, 2019

Change the Weather History Date:

Tuesday, September 3, 2019

  Actual Average Record
Temperature  
Mean Temperature 62 °F -  
Max Temperature 73 °F - - ()
Min Temperature 50 °F - - ()
Degree Days  
Heating Degree Days 4    
Growing Degree Days 12 (Base 50)    
Moisture  
Dew Point 54 °F    
Average Humidity 76    
Maximum Humidity 100    
Minimum Humidity 50    
Precipitation  
Precipitation 0.00 in - - ()
Sea Level Pressure  
Sea Level Pressure 29.86 in    
Wind  
Wind Speed 3 mph ()    
Max Wind Speed 13 mph    
Max Gust Speed -    
Visibility 6.1 miles    
Events Rain , Thunderstorm    
T = Trace of Precipitation, MM = Missing Value Source: Averaged Metar Reports

Daily Weather History Graph

Daily Weather History Graph

Search for Another Location

Airport or City:

Astronomy

Sep. 03, 2019 Rise Set
Actual Time 6:05 AM +07 7:41 PM +07
Civil Twilight 5:28 AM +07 8:17 PM +07
Nautical Twilight 4:43 AM +07 9:03 PM +07
Astronomical Twilight 3:52 AM +07 9:53 PM +07
Moon 10:58 AM +07 (9/3) 9:40 PM +07 (9/3)
Length of Visible Light 14h 49m
Length of Day
13h 35m
Waxing Crescent, 20% of the Moon is Illuminated
Sep 3
Waxing Crescent
Sep 6
First Quarter
Sep 14
Full
Sep 22
Last Quarter
Sep 29
New

Hourly Weather History & Observations

Time (+07) Temp. Dew Point Humidity Pressure Visibility Wind Dir Wind Speed Gust Speed Precip Events Conditions
12:00 AM 55.4 °F 53.6 °F 94% 29.89 in - North 2.2 mph - N/A   Clear
12:30 AM 55.4 °F 53.6 °F 94% 29.89 in 5.6 mi Calm Calm - N/A   Unknown
1:00 AM 55.4 °F 55.4 °F 100% 29.89 in - Calm Calm - N/A   Clear
1:30 AM 57.2 °F 55.4 °F 94% 29.89 in - Calm Calm - N/A   Clear
2:00 AM 55.4 °F 55.4 °F 100% 29.86 in - Calm Calm - N/A   Clear
2:30 AM 57.2 °F 55.4 °F 94% 29.89 in - North 2.2 mph - N/A   Clear
3:30 AM 57.2 °F 55.4 °F 94% 29.86 in 6.2 mi North 4.5 mph - N/A   Scattered Clouds
4:00 AM 59.0 °F 55.4 °F 88% 29.89 in 6.2 mi NNW 6.7 mph - N/A Rain Light Rain Showers
5:30 AM 51.8 °F 50.0 °F 94% 29.92 in 6.2 mi ENE 4.5 mph - N/A Rain Light Rain Showers
6:00 AM 51.8 °F 50.0 °F 94% 29.89 in 6.2 mi NW 2.2 mph - N/A Rain Light Rain Showers
6:30 AM 50.0 °F 50.0 °F 100% 29.89 in 6.2 mi Variable 2.2 mph - N/A   Scattered Clouds
7:00 AM 51.8 °F 51.8 °F 100% 29.92 in 6.2 mi SSW 6.7 mph - N/A   Scattered Clouds
7:30 AM 51.8 °F 50.0 °F 94% 29.92 in 6.2 mi SSW 4.5 mph - N/A   Scattered Clouds
8:00 AM 55.4 °F 51.8 °F 88% 29.92 in 6.2 mi SE 4.5 mph - N/A   Scattered Clouds
8:30 AM 55.4 °F 51.8 °F 88% 29.92 in 6.2 mi Variable 2.2 mph - N/A   Scattered Clouds
9:00 AM 59.0 °F 51.8 °F 77% 29.92 in - South 6.7 mph - N/A   Clear
9:30 AM 60.8 °F 51.8 °F 72% 29.89 in - South 4.5 mph - N/A   Clear
10:00 AM 60.8 °F 51.8 °F 72% 29.89 in - SE 4.5 mph - N/A   Clear
11:00 AM 64.4 °F 53.6 °F 68% 29.89 in - ESE 4.5 mph - N/A   Clear
11:30 AM 66.2 °F 55.4 °F 68% 29.89 in - South 4.5 mph - N/A   Clear
12:00 PM 66.2 °F 55.4 °F 68% 29.89 in 6.2 mi SE 4.5 mph - N/A   Scattered Clouds
12:30 PM 68.0 °F 55.4 °F 64% 29.86 in - SE 6.7 mph - N/A   Clear
1:00 PM 69.8 °F 55.4 °F 60% 29.86 in - SSE 4.5 mph - N/A   Clear
2:00 PM 71.6 °F 57.2 °F 60% 29.83 in - SSE 4.5 mph - N/A   Clear
2:30 PM 71.6 °F 57.2 °F 60% 29.83 in - SSE 4.5 mph - N/A   Clear
3:00 PM 71.6 °F 57.2 °F 60% 29.83 in - SE 6.7 mph - N/A   Clear
3:30 PM 69.8 °F 55.4 °F 60% 29.83 in - SSE 4.5 mph - N/A   Clear
4:00 PM 71.6 °F 57.2 °F 60% 29.83 in - South 4.5 mph - N/A   Clear
4:30 PM 71.6 °F 57.2 °F 60% 29.83 in - SSW 4.5 mph - N/A   Clear
5:00 PM 73.4 °F 53.6 °F 50% 29.80 in - SSW 4.5 mph - N/A   Clear
5:30 PM 73.4 °F 53.6 °F 50% 29.80 in - SSE 4.5 mph - N/A   Clear
6:00 PM 71.6 °F 55.4 °F 57% 29.80 in - SW 4.5 mph - N/A   Clear
6:30 PM 71.6 °F 55.4 °F 57% 29.80 in 6.2 mi WSW 2.2 mph - N/A   Scattered Clouds
7:00 PM 68.0 °F 57.2 °F 68% 29.80 in - North 6.7 mph - N/A   Clear
7:30 PM 66.2 °F 57.2 °F 73% 29.80 in - NW 4.5 mph - N/A   Clear
8:00 PM 64.4 °F 55.4 °F 73% 29.83 in - SE 6.7 mph - N/A   Clear
8:30 PM 66.2 °F 50.0 °F 56% 29.83 in - NNE 2.2 mph - N/A   Clear
9:00 PM 64.4 °F 53.6 °F 68% 29.83 in - South 4.5 mph - N/A   Clear
9:30 PM 62.6 °F 53.6 °F 72% 29.83 in 6.2 mi SSW 2.2 mph - N/A   Scattered Clouds
10:00 PM 64.4 °F 51.8 °F 64% 29.83 in 6.2 mi SSW 4.5 mph - N/A   Scattered Clouds
10:30 PM 60.8 °F 53.6 °F 77% 29.83 in 6.2 mi NNW 4.5 mph - N/A Thunderstorm Thunderstorm
11:00 PM 59.0 °F 55.4 °F 88% 29.83 in 5.6 mi North 13.4 mph - N/A Rain Light Rain Showers
11:30 PM 59.0 °F 55.4 °F 88% 29.89 in 6.2 mi South 4.5 mph - N/A   Scattered Clouds